Location: Stara Lesna
(49.1528°N, 20.2911°E)
Time: 03:36:03
(UTC+02:00)

ADEOS II - Pass Details

Date: 13 July 2020
Orbit: 799 x 801 km, 98.5° (Epoch: 11 August)

Event Time Altitude Azimuth Distance (km) Brightness Sun altitude
Rises 03:42:39 0° 11° (N) 3,323 6.4 -8.8°
Reaches altitude 10° 03:45:02 10° 7° (N) 2,388 5.5 -8.5°
Maximum altitude 03:50:09 54° 291° (WNW) 974 2.4 -8.0°
Drops below altitude 10° 03:55:14 10° 216° (SW) 2,371 3.9 -7.4°
Enters shadow 03:55:33 - 215° (SW) 2,490 4.0 -7.4°
